Location: Saint-Palais-sur-Mer
(45.6429°N, 1.0859°W)
Time: 16:24:43
(UTC+01:00)

S-56A Canister/Altair - Pass Details

Date: 12 February 2026
Orbit: 633 x 2484 km, 38.9° (Epoch: 16 March)

Event Time Altitude Azimuth Distance (km) Brightness Sun altitude
Exits shadow 05:15:56 53° 226° (SW) 2,131 9.3 -31.0°
Maximum altitude 05:18:09 61° 185° (S) 2,105 9.5 -30.7°
Drops below altitude 10° 05:31:31 10° 111° (ESE) 4,960 12.4 -28.4°
Sets 05:35:46 0° 108° (ESE) 6,084 13.1 -27.6°
